FW7545 Weather Reports


Display with metric or nautical units.
time (UTC)temp
F
wind
direction
speed
MPH
gust
MPH
rain 1hr
in
rain 24hr
in
rain mn
in
humidity
%
barometer
mb
20260505193504 82 257 10.0 18.0 0.00 0.01 0.01 32 1007.3
20260505193004 82 265 10.0 22.0 0.00 0.01 0.01 32 1007.4
20260505192504 82 274 12.0 26.0 0.00 0.01 0.01 32 1007.4
20260505191004 83 259 12.0 22.0 0.00 0.01 0.01 31 1007.6
20260505190004 83 231 12.0 20.0 0.00 0.01 0.01 32 1007.6
20260505185004 83 247 10.0 23.0 0.00 0.01 0.01 33 1007.6
20260505184504 82 243 9.0 18.0 0.00 0.01 0.01 34 1008.0
20260505183504 82 233 10.0 23.0 0.00 0.01 0.01 34 1008.1
20260505183005 82 253 13.0 22.0 0.00 0.01 0.01 35 1008.0
20260505182004 82 251 12.0 22.0 0.00 0.01 0.01 35 1008.2
20260505181504 82 235 12.0 18.0 0.00 0.01 0.01 35 1008.3
20260505175504 82 275 7.0 16.0 0.00 0.01 0.01 37 1008.4
20260505174504 81 262 11.0 25.0 0.00 0.01 0.01 36 1008.4
20260505174005 81 255 9.0 17.0 0.00 0.01 0.01 37 1008.5
20260505173504 81 250 9.0 16.0 0.00 0.01 0.01 38 1008.5
20260505172504 81 226 7.0 18.0 0.00 0.01 0.01 39 1009.0
20260505172004 80 240 5.0 13.0 0.00 0.01 0.01 41 1009.0
20260505171503 80 255 9.0 14.0 0.00 0.01 0.01 41 1009.0
20260505171004 80 274 10.0 20.0 0.00 0.01 0.01 41 1009.0
20260505170504 80 253 8.0 15.0 0.00 0.01 0.01 41 1009.1
20260505170004 80 236 6.0 18.0 0.00 0.01 0.01 41 1009.0
20260505165004 80 253 5.0 12.0 0.00 0.01 0.01 41 1009.1
20260505164504 80 278 5.0 12.0 0.00 0.01 0.01 43 1009.3
20260505164004 79 270 5.0 16.0 0.00 0.01 0.01 42 1009.3
20260505163504 79 269 9.0 17.0 0.00 0.01 0.01 43 1009.4
20260505163005 78 218 6.0 12.0 0.00 0.01 0.01 43 1009.5
20260505162504 78 243 6.0 12.0 0.00 0.01 0.01 45 1009.5
20260505161504 78 234 7.0 15.0 0.00 0.01 0.01 44 1009.6
20260505161004 77 234 6.0 14.0 0.00 0.01 0.01 44 1009.7
20260505160504 77 233 8.0 14.0 0.00 0.01 0.01 44 1009.7
20260505153005 75 216 7.0 13.0 0.00 0.01 0.01 48 1010.2
20260505152504 75 266 6.0 14.0 0.00 0.01 0.01 49 1010.2
20260505152004 74 256 5.0 12.0 0.00 0.01 0.01 50 1010.2
20260505151004 74 267 5.0 12.0 0.00 0.01 0.01 52 1010.3
20260505150504 73 253 5.0 10.0 0.00 0.01 0.01 53 1010.3
20260505140504 68 271 7.0 13.0 0.00 0.01 0.01 60 1010.7
20260505125004 63 253 5.0 9.0 0.00 0.00 0.00 70 1010.5
20260505124504 62 257 5.0 10.0 0.00 0.00 0.00 70 1010.3
20260505124005 62 247 4.0 10.0 0.00 0.00 0.00 72 1010.3
20260505123004 61 276 3.0 12.0 0.00 0.00 0.00 74 1010.3
20260505122504 60 241 5.0 9.0 0.00 0.00 0.00 75 1010.4
20260505122004 60 226 4.0 10.0 0.00 0.00 0.00 76 1010.4
20260505121504 59 239 4.0 8.0 0.00 0.00 0.00 78 1010.4
20260505121004 59 234 2.0 6.0 0.00 0.00 0.00 78 1010.4
20260505120503 59 263 3.0 9.0 0.00 0.00 0.00 79 1010.5
20260505120005 58 252 3.0 7.0 0.00 0.00 0.00 79 1010.5
20260505115004 57 235 5.0 12.0 0.00 0.00 0.00 80 1010.6
20260505114504 57 227 5.0 8.0 0.00 0.00 0.00 81 1010.5
20260505114004 57 228 5.0 9.0 0.00 0.00 0.00 81 1010.5
20260505113504 56 246 3.0 7.0 0.00 0.00 0.00 81 1010.5
20260505113004 56 246 2.0 3.0 0.00 0.00 0.00 81 1010.5
20260505112004 56 296 2.0 3.0 0.00 0.00 0.00 80 1010.5
20260505111503 56 234 2.0 6.0 0.00 0.00 0.00 80 1010.4
20260505111004 57 292 2.0 3.0 0.00 0.00 0.00 80 1010.3
20260505110504 57 235 2.0 6.0 0.00 0.00 0.00 80 1010.3
20260505102004 57 273 5.0 10.0 0.00 0.00 0.00 73 1010.2
20260505101004 57 242 6.0 12.0 0.00 0.00 0.00 73 1010.1
20260505100005 56 231 6.0 10.0 0.00 0.00 0.00 73 1009.9
20260505095004 56 238 5.0 9.0 0.00 0.00 0.00 73 1009.9
20260505094504 56 234 6.0 8.0 0.00 0.00 0.00 73 1009.9
20260505094004 56 233 3.0 8.0 0.00 0.00 0.00 73 1009.9
20260505093504 56 248 3.0 5.0 0.00 0.00 0.00 73 1009.8
20260505093004 56 240 4.0 8.0 0.00 0.00 0.00 73 1009.8
20260505092504 56 255 2.0 7.0 0.00 0.00 0.00 73 1009.8
20260505092004 56 267 3.0 7.0 0.00 0.00 0.00 73 1009.6
20260505091504 56 252 3.0 8.0 0.00 0.00 0.00 73 1009.6
20260505091004 56 241 4.0 12.0 0.00 0.00 0.00 73 1009.5
20260505090504 56 232 3.0 7.0 0.00 0.00 0.00 73 1009.5
20260505090004 56 242 3.0 8.0 0.00 0.00 0.00 73 1009.5
20260505085504 56 236 5.0 10.0 0.00 0.00 0.00 73 1009.4
20260505085004 56 233 3.0 8.0 0.00 0.00 0.00 73 1009.3
20260505084504 56 235 4.0 8.0 0.00 0.00 0.00 73 1009.3
20260505084004 56 239 5.0 10.0 0.00 0.00 0.00 73 1009.3
20260505083504 56 231 5.0 8.0 0.00 0.00 0.00 73 1009.4
20260505083005 56 236 3.0 8.0 0.00 0.00 0.00 73 1009.4
20260505082504 56 244 2.0 8.0 0.00 0.00 0.00 74 1009.4
20260505082004 56 249 3.0 7.0 0.00 0.00 0.00 74 1009.4
20260505081004 56 243 4.0 8.0 0.00 0.00 0.00 74 1009.5
20260505080504 56 241 3.0 8.0 0.00 0.00 0.00 75 1009.6
20260505080004 56 234 3.0 5.0 0.00 0.00 0.00 75 1009.6
20260505075504 56 246 0.0 1.0 0.00 0.00 0.00 75 1009.6
20260505075004 56 244 1.0 5.0 0.00 0.00 0.00 75 1009.4
20260505074504 55 250 2.0 7.0 0.00 0.00 0.00 75 1009.4
20260505073504 55 245 2.0 3.0 0.00 0.00 0.00 75 1009.3
20260505072504 55 234 1.0 3.0 0.00 0.00 0.00 75 1009.3
20260505071504 55 234 2.0 3.0 0.00 0.00 0.00 74 1009.3
20260505071004 55 239 1.0 3.0 0.00 0.00 0.00 74 1009.4
20260505070504 55 239 1.0 3.0 0.00 0.00 0.00 74 1009.5
20260505070005 55 241 1.0 3.0 0.00 0.00 0.00 74 1009.4
20260505065504 55 241 1.0 5.0 0.00 0.00 0.00 74 1009.5
20260505063504 55 234 3.0 5.0 0.00 0.00 0.00 73 1009.6
20260505063004 55 244 2.0 5.0 0.00 0.00 0.00 73 1009.7
20260505062504 54 242 2.0 3.0 0.00 0.00 0.00 73 1009.7
20260505062004 54 238 2.0 5.0 0.00 0.00 0.00 73 1009.8
20260505061504 54 240 3.0 3.0 0.00 0.00 0.00 73 1009.8
20260505061004 54 240 2.0 3.0 0.00 0.00 0.00 73 1009.8
20260505060504 54 243 2.0 3.0 0.00 0.00 0.00 72 1009.8
20260505060005 54 246 2.0 3.0 0.00 0.00 0.00 72 1009.8
20260505055504 55 250 1.0 3.0 0.00 0.00 0.00 72 1009.8
20260505054503 55 252 1.0 2.0 0.00 0.00 0.00 71 1009.9
20260505054004 55 252 0.0 2.0 0.00 0.00 0.00 71 1009.9
20260505053004 55 252 0.0 0.0 0.00 0.00 0.00 71 1009.9
20260505052504 55 252 0.0 0.0 0.00 0.00 0.00 71 1009.9
20260505052004 55 252 0.0 1.0 0.00 0.00 0.00 71 1009.9
20260505051504 55 252 0.0 1.0 0.00 0.00 0.00 71 1009.9
20260505051004 55 252 1.0 3.0 0.00 0.00 0.00 71 1009.9
20260505050504 55 238 1.0 3.0 0.00 0.00 0.00 71 1009.9
20260505041504 55 227 0.0 1.0 0.00 0.00 0.00 67 1010.2
20260505041003 55 227 0.0 0.0 0.00 0.00 0.00 67 1010.1
20260505040505 55 227 0.0 0.0 0.00 0.00 0.00 66 1010.1
20260505035504 56 227 0.0 0.0 0.00 0.00 0.00 64 1010.1
20260505034504 56 240 0.0 1.0 0.00 0.00 0.00 64 1010.0
20260505034003 56 240 0.0 0.0 0.00 0.00 0.00 63 1010.1
20260505033503 56 240 0.0 0.0 0.00 0.00 0.00 62 1010.1
20260505033004 57 240 0.0 0.0 0.00 0.00 0.00 62 1010.1
20260505032504 57 240 0.0 1.0 0.00 0.00 0.00 61 1010.2
20260505032004 57 240 0.0 0.0 0.00 0.00 0.00 61 1010.2
20260505031504 57 240 0.0 0.0 0.00 0.00 0.00 61 1010.2
20260505031004 58 240 0.0 0.0 0.00 0.00 0.00 61 1010.2
20260505030504 58 240 0.0 0.0 0.00 0.00 0.00 60 1010.2
20260505030004 58 240 0.0 0.0 0.00 0.00 0.00 59 1010.3
20260505025504 58 240 0.0 0.0 0.00 0.00 0.00 59 1010.3
20260505025004 59 240 0.0 0.0 0.00 0.00 0.00 59 1010.3
20260505024504 59 240 0.0 0.0 0.00 0.00 0.00 58 1010.3
20260505024004 59 240 0.0 0.0 0.00 0.00 0.00 56 1010.4
20260505023504 59 240 0.0 0.0 0.00 0.00 0.00 55 1010.3
20260505023004 60 240 0.0 2.0 0.00 0.00 0.00 55 1010.4
20260505022504 60 239 0.0 0.0 0.00 0.00 0.00 54 1010.4
20260505022004 60 239 0.0 0.0 0.00 0.00 0.00 54 1010.3
20260505021504 61 239 0.0 0.0 0.00 0.00 0.00 53 1010.3
20260505021005 61 239 0.0 0.0 0.00 0.00 0.00 53 1010.3
20260505015004 63 239 0.0 0.0 0.00 0.00 0.00 51 1010.1
20260505014505 63 239 0.0 0.0 0.00 0.00 0.00 50 1010.1
20260505014004 63 239 0.0 0.0 0.00 0.00 0.00 48 1010.1
20260505013504 64 239 0.0 0.0 0.00 0.00 0.00 48 1010.0
20260505013004 64 239 0.0 1.0 0.00 0.00 0.00 47 1010.0
20260505012504 64 239 0.0 2.0 0.00 0.00 0.00 47 1010.0
20260505012004 65 238 1.0 2.0 0.00 0.00 0.00 46 1009.9
20260505011504 65 238 1.0 2.0 0.00 0.00 0.00 45 1009.8
20260505011004 65 236 1.0 2.0 0.00 0.00 0.00 45 1009.8
20260505010504 66 261 1.0 3.0 0.00 0.00 0.00 44 1009.7
20260505010005 66 286 2.0 3.0 0.00 0.00 0.00 43 1009.7
20260505005504 66 244 2.0 6.0 0.00 0.00 0.00 43 1009.6
20260505004504 67 280 1.0 3.0 0.00 0.00 0.00 42 1009.5
20260505004005 67 252 2.0 7.0 0.00 0.00 0.00 42 1009.4
20260505003505 67 233 5.0 9.0 0.00 0.00 0.00 41 1009.4
20260505003004 67 244 5.0 10.0 0.00 0.00 0.00 41 1009.4
20260505002504 67 259 5.0 10.0 0.00 0.00 0.00 41 1009.4
20260505002004 67 226 5.0 10.0 0.00 0.00 0.00 40 1009.3
20260505001504 68 235 6.0 12.0 0.00 0.00 0.00 40 1009.2
20260505000504 68 243 5.0 12.0 0.00 0.00 0.00 40 1009.1
20260505000004 68 243 3.0 12.0 0.00 0.00 0.00 39 1009.0
20260504235504 68 256 3.0 12.0 0.00 0.00 0.00 39 1008.8
20260504235004 69 251 6.0 12.0 0.00 0.00 0.00 39 1008.8
20260504234004 69 276 6.0 13.0 0.00 0.00 0.00 39 1008.7
20260504233504 69 244 6.0 14.0 0.00 0.00 0.00 38 1008.6
20260504233004 69 236 5.0 12.0 0.00 0.00 0.00 38 1008.5
20260504232504 70 255 3.0 12.0 0.00 0.00 0.00 38 1008.4
20260504232004 70 221 5.0 10.0 0.00 0.00 0.00 38 1008.4
20260504231505 70 246 6.0 13.0 0.00 0.00 0.00 37 1008.4
20260504231004 70 248 6.0 12.0 0.00 0.00 0.00 37 1008.3
20260504230504 70 260 5.0 10.0 0.00 0.00 0.00 37 1008.3
20260504230004 70 233 5.0 12.0 0.00 0.00 0.00 37 1008.3
20260504225504 71 240 5.0 12.0 0.00 0.00 0.00 36 1008.3
20260504225004 71 245 4.0 15.0 0.00 0.00 0.00 36 1008.4
20260504224504 71 240 7.0 13.0 0.00 0.00 0.00 36 1008.4
20260504224004 71 238 5.0 12.0 0.00 0.00 0.00 36 1008.3
20260504223504 71 225 10.0 15.0 0.00 0.00 0.00 35 1008.3
20260504223004 71 242 5.0 15.0 0.00 0.00 0.00 35 1008.4
20260504222504 71 238 4.0 16.0 0.00 0.00 0.00 36 1008.4
20260504222004 71 260 6.0 15.0 0.00 0.00 0.00 36 1008.4
20260504221504 71 259 5.0 14.0 0.00 0.00 0.00 36 1008.4
20260504221003 71 233 7.0 13.0 0.00 0.00 0.00 35 1008.5
20260504220504 71 237 8.0 13.0 0.00 0.00 0.00 35 1008.5
20260504220004 71 260 10.0 16.0 0.00 0.00 0.00 35 1008.4
20260504215004 71 245 6.0 14.0 0.00 0.00 0.00 35 1008.6
20260504214004 71 249 9.0 15.0 0.00 0.00 0.00 35 1008.7
20260504213004 71 243 9.0 20.0 0.00 0.00 0.00 35 1008.7
20260504212504 72 210 7.0 15.0 0.00 0.00 0.00 34 1008.8
20260504212004 72 280 6.0 12.0 0.00 0.00 0.00 35 1008.8
20260504211503 72 264 8.0 15.0 0.00 0.00 0.00 34 1008.8
20260504211004 72 260 7.0 14.0 0.00 0.00 0.00 34 1008.8
20260504205504 72 247 7.0 12.0 0.00 0.00 0.00 34 1008.6
20260504205004 71 219 7.0 14.0 0.00 0.00 0.00 34 1008.8
20260504204504 71 233 7.0 13.0 0.00 0.00 0.00 34 1008.7
20260504204005 71 239 9.0 20.0 0.00 0.00 0.00 34 1008.9
20260504203504 72 250 11.0 23.0 0.00 0.00 0.00 34 1008.9
20260504203004 72 266 9.0 18.0 0.00 0.00 0.00 35 1008.7
20260504202004 71 235 9.0 15.0 0.00 0.00 0.00 34 1008.9
20260504201504 71 238 9.0 16.0 0.00 0.00 0.00 33 1009.0
20260504201005 71 256 6.0 13.0 0.00 0.00 0.00 34 1009.0
20260504200004 71 234 10.0 15.0 0.00 0.00 0.00 33 1009.0
20260504195004 72 247 6.0 15.0 0.00 0.00 0.00 33 1009.2
20260504194505 71 279 7.0 17.0 0.00 0.00 0.00 33 1009.2
20260504194004 71 248 8.0 20.0 0.00 0.00 0.00 33 1009.1